Simultaneous Nadir Overpasses (SNOs) Predictions

Prediction of SNOs between GOES-15 and NPP Satellite Orbit:

Table of predicted SNOs for the next 14.0 days since TLE Epoch: 5/13/2023
Index Date Time (GOES-15) GOES-15 Lat,Lon NPP Lat,Lon Distance(km) Time Diff (sec)
1 05/13/2023 23:22:57 -0.09,-147.30 -0.39,-148.53 140.79 80
2 05/14/2023 23:01:33 -0.11,-147.75 0.73,-144.02 425.26 80
3 05/16/2023 11:26:03 0.08,-148.46 0.30,-149.32 99.05 80
4 05/17/2023 11:04:39 0.10,-148.91 -0.81,-144.81 466.49 80
5 05/18/2023 23:29:17 -0.07,-149.58 -0.20,-150.16 66.14 80
6 05/19/2023 23:07:54 -0.09,-150.02 0.92,-145.65 499.06 80
7 05/21/2023 11:32:23 0.05,-150.72 0.10,-150.95 26.60 80
8 05/23/2023 23:34:45 -0.05,-151.81 -0.04,-151.78 4.01 28
9 05/26/2023 11:36:02 0.04,-152.94 -0.01,-152.56 42.14 80
